FW3197 Weather Reports


time (UTC)temp
C
wind
direction
speed
KPH
gust
KPH
rain 1hr
cm
rain 24hr
cm
rain mn
cm
humidity
%
barometer
mb
20260505041540 14 124 1.6 9.7 0.00 0.00 0.00 62 1009.1
20260505040021 14 133 0.0 8.0 0.00 0.00 0.00 61 1009.1
20260505034520 14 207 0.0 11.3 0.00 0.00 0.00 60 1009.0
20260505033020 15 163 1.6 9.7 0.00 0.00 0.00 59 1009.1
20260505031519 15 131 1.6 11.3 0.00 0.00 0.00 58 1009.0
20260505030019 15 204 0.0 6.4 0.00 0.00 0.00 57 1008.9
20260505024520 15 261 3.2 9.7 0.00 0.00 0.00 56 1008.9
20260505023016 15 122 1.6 8.0 0.00 0.00 0.00 55 1008.9
20260505021515 16 219 0.0 9.7 0.00 0.00 0.00 55 1008.9
20260505020018 16 138 1.6 8.0 0.00 0.00 0.00 54 1008.9
20260505014512 16 252 1.6 12.9 0.00 0.00 0.00 53 1008.8
20260505013016 17 80 3.2 14.5 0.00 0.00 0.00 52 1008.5
20260505011511 17 221 1.6 11.3 0.00 0.00 0.00 51 1008.3
20260505010009 17 300 1.6 6.4 0.00 0.00 0.00 50 1007.9
20260505004508 18 136 3.2 14.5 0.00 0.00 0.00 48 1007.6
20260505003006 18 120 6.4 22.5 0.00 0.00 0.00 47 1007.2
20260505001505 18 264 4.8 9.7 0.00 0.00 0.00 44 1006.7
20260505000004 19 134 0.0 1.6 0.00 0.00 0.00 41 1006.2
20260504234504 19 294 1.6 6.4 0.00 0.00 0.00 40 1006.1
20260504233002 20 225 0.0 4.8 0.00 0.00 0.00 39 1005.9
20260504231500 21 251 1.6 11.3 0.00 0.00 0.00 37 1005.7
20260504230104 21 217 1.6 9.7 0.00 0.00 0.00 37 1005.4
20260504224610 21 274 3.2 6.4 0.00 0.00 0.00 36 1005.2
20260504223058 22 280 1.6 9.7 0.00 0.00 0.00 35 1005.2
20260504221557 22 129 3.2 11.3 0.00 0.00 0.00 34 1005.2
20260504220059 22 187 0.0 11.3 0.00 0.00 0.00 35 1005.2
20260504214554 22 139 3.2 14.5 0.00 0.00 0.00 36 1005.2
20260504213124 22 133 1.6 8.0 0.00 0.00 0.00 35 1005.2
20260504211555 22 255 3.2 17.7 0.00 0.00 0.00 35 1005.2
20260504210050 22 98 4.8 12.9 0.00 0.00 0.00 34 1005.3
20260504204552 22 164 1.6 17.7 0.00 0.00 0.00 34 1005.3
20260504203059 22 247 3.2 8.0 0.00 0.00 0.00 34 1005.4
20260504201547 23 157 3.2 12.9 0.00 0.00 0.00 33 1005.2
20260504200049 22 222 3.2 12.9 0.00 0.00 0.00 33 1005.3
20260504194557 22 115 3.2 16.1 0.00 0.00 0.00 32 1005.3
20260504193052 22 222 1.6 22.5 0.00 0.00 0.00 35 1005.2
20260504191541 22 141 4.8 17.7 0.00 0.00 0.00 32 1005.4
20260504190041 22 291 4.8 24.1 0.00 0.00 0.00 33 1005.7
20260504184538 22 141 4.8 22.5 0.00 0.00 0.00 32 1005.7
20260504183037 22 181 4.8 16.1 0.00 0.00 0.00 32 1005.9
20260504181534 22 249 4.8 14.5 0.00 0.00 0.00 33 1005.8
20260504180031 21 167 3.2 17.7 0.00 0.00 0.00 36 1005.9
20260504174530 21 275 6.4 22.5 0.00 0.00 0.00 33 1005.9
20260504173036 21 253 3.2 20.9 0.00 0.00 0.00 36 1006.1
20260504171527 21 285 4.8 19.3 0.00 0.00 0.00 36 1006.0
20260504140111 17 266 1.6 12.9 0.00 0.00 0.00 47 1008.0
20260504081505 7 71 0.0 1.6 0.00 0.00 0.00 64 1009.3
20260504050023 2 356 0.0 0.0 0.00 0.03 0.00 80 1009.3
20260504044535 2 356 0.0 0.0 0.00 0.03 0.00 80 1009.3
20260504043122 2 356 0.0 0.0 0.00 0.03 0.00 79 1009.2